This demonstration page uses our WeatherBlox Daily Observations layout. Learn more.

Left ArrowRight Arrow

Hourly Observations for September 27, 2021

Temp ( °F °C ) Dew Point ( °F °C ) Humidity (%) Winds ( mph kmh ) Pressure ( in mb ) Visibility ( mi km ) Precip ( " mm )
12:54 am 00:54 Clear 61 16.1 48 8.9 63 63 S 9 15 29.72 1007 10 16 N/A
1:54 am 01:54 Clear 64 17.8 47 8.3 54 54 SE 5 7 29.74 1007 10 16 N/A
2:54 am 02:54 Clear 63 17.2 47 8.3 56 56 SSE 6 9 29.73 1007 10 16 N/A
3:54 am 03:54 Clear 62 16.7 48 8.9 60 60 SSE 3 6 29.74 1007 10 16 N/A
4:54 am 04:54 Clear 59 15 47 8.3 64 64 N N/A 29.75 1007 10 16 N/A
5:54 am 05:54 Clear 57 13.9 47 8.3 69 69 N N/A 29.77 1008 10 16 N/A
6:54 am 06:54 Clear 54 12.2 46 7.8 75 75 S 3 6 29.78 1009 10 16 N/A
7:54 am 07:54 Sunny 55 12.8 46 7.8 72 72 N N/A 29.80 1009 10 16 N/A
8:54 am 08:54 Sunny 63 17.2 49 9.4 60 60 N N/A 29.80 1009 10 16 N/A
9:54 am 09:54 Sunny 71 21.7 49 9.4 46 46 WNW 3 6 29.82 1010 10 16 N/A
10:54 am 10:54 Sunny 75 23.9 51 10.6 43 43 N N/A 29.82 1010 10 16 N/A
11:54 am 11:54 Sunny 82 27.8 53 11.7 37 37 SSE 3 6 29.82 1010 10 16 N/A
12:54 pm 12:54 Sunny 86 30 54 12.2 33 33 SE 5 7 29.82 1010 10 16 N/A
1:54 pm 13:54 Sunny 89 31.7 55 12.8 31 31 SE 7 11 29.81 1010 10 16 N/A
2:54 pm 14:54 Sunny 91 32.8 54 12.2 28 28 E 8 13 29.80 1009 10 16 N/A
3:54 pm 15:54 Sunny 93 33.9 51 10.6 24 24 ESE 6 9 29.79 1009 10 16 N/A
4:54 pm 16:54 Sunny 93 33.9 50 10 23 23 ESE 5 7 29.79 1009 10 16 N/A
5:54 pm 17:54 Sunny 92 33.3 48 8.9 22 22 E 6 9 29.79 1009 10 16 N/A
6:54 pm 18:54 Sunny 82 27.8 57 13.9 42 42 ENE 6 9 29.81 1010 10 16 N/A
7:54 pm 19:54 Clear 71 21.7 56 13.3 59 59 ENE 7 11 29.83 1010 10 16 N/A
8:54 pm 20:54 Clear 77 25 55 12.8 47 47 N N/A 29.83 1010 10 16 N/A
9:54 pm 21:54 Clear 72 22.2 56 13.3 57 57 N N/A 29.83 1010 10 16 N/A
10:54 pm 22:54 Clear 62 16.7 53 11.7 73 73 N N/A 29.84 1011 10 16 N/A
11:54 pm 23:54 Clear 60 15.6 53 11.7 78 78 NNW 3 6 29.83 1010 9 14 N/A

Powered by AerisWeather